METEOSAT-9 (MSG-2)

Last updated on Sun Aug 31 2025 00:02:22 GMT+0000 (Coordinated Universal Time)

1 28912U 05049B 25242.07544760 .00000127 00000+0 00000+0 0 9996 2 28912 8.6930 56.9494 0000913 198.9210 155.5986 1.00268038 4089
UTC large
Height (km)
Speed (km/s)
/
Latitude / Longitude
Inclination (degrees)
Orbital Period (minutes)
Azimuth
Elevation
Range (km)
Doppler Factor

Next 0 passes for location: London (51.5072 / 0.1276)

Sorry there are no passes over London.